Wind_Speed
14 14 14 14 13 13 13 14 14 14 13 13 13 12 11 10 9 9 8 7 6 5 4 5 6 7 8 9 10 11 13 15 17 18 19 20 22 24 26 27 28 29 30
15 15 15 15 15 14 14 14 14 13 13 13 12 12 11 10 9 9 8 7 6 5 5 5 6 6 7 9 10 11 12 15 17 18 19 20 20 22 24 26 26 27 29
17 17 17 17 16 16 15 15 15 14 13 13 13 12 11 10 9 9 8 7 6 6 5 5 6 6 7 9 10 11 12 14 16 18 19 20 21 21 23 25 26 26 28
18 18 18 18 18 18 17 17 16 15 14 14 13 13 12 11 9 9 8 8 7 6 6 6 6 6 7 8 10 10 11 13 15 17 18 20 21 21 22 23 25 26 27
20 20 20 20 20 20 19 19 18 17 16 15 14 13 12 11 10 10 9 8 7 7 7 7 7 7 7 8 9 10 11 12 14 15 17 18 20 22 22 23 24 26 26
22 22 23 23 22 22 22 21 20 19 18 17 16 15 14 13 11 11 10 9 9 9 8 8 8 8 8 8 9 9 10 11 13 15 16 18 19 21 22 22 23 24 25
25 25 25 25 25 25 24 24 23 22 21 20 19 17 16 15 14 13 12 11 10 10 10 9 9 9 8 9 9 10 11 11 12 14 15 16 18 19 21 22 22 23 24
27 27 27 27 27 27 27 26 26 24 23 22 21 20 18 17 16 15 14 13 13 12 11 11 10 10 9 9 10 11 11 12 13 14 15 15 16 17 19 21 22 23 24
30 30 30 30 30 30 29 28 28 27 26 25 24 23 21 20 18 17 16 15 15 14 13 12 12 12 11 11 11 11 12 12 13 14 15 16 16 17 18 19 21 22 23
33 33 33 32 32 32 32 31 30 30 29 28 26 25 24 23 21 20 19 18 17 16 15 14 14 13 13 12 12 12 12 13 13 14 15 16 16 17 18 19 21 22 23
36 36 35 35 35 34 34 34 33 32 31 31 29 28 27 26 25 23 22 20 19 18 17 16 15 15 14 14 14 14 14 14 14 15 15 16 17 18 19 20 21 22 23
39 39 39 38 38 37 36 36 35 35 34 33 32 30 29 28 27 26 25 23 22 20 20 18 17 17 16 16 16 15 15 15 15 15 16 16 16 18 19 20 21 22 22
42 42 42 41 40 39 38 37 37 37 36 35 34 33 31 30 30 29 28 26 25 23 22 21 20 19 19 18 17 17 16 16 16 16 16 16 16 17 19 19 21 22 23
45 44 44 43 42 41 40 40 39 38 38 37 36 35 34 33 32 31 30 29 28 26 25 24 23 22 21 20 20 19 18 18 18 17 17 17 18 18 19 20 22 23 24
46 46 45 45 45 44 42 41 41 40 40 39 38 37 36 35 34 33 32 31 30 29 27 26 25 24 23 22 22 21 20 20 20 20 19 19 19 19 20 21 22 23 24
47 47 47 47 47 47 46 44 44 43 42 42 40 39 38 37 36 35 34 34 32 31 30 29 27 26 25 25 24 23 23 22 22 21 21 21 21 21 22 22 23 24 25
48 48 48 48 49 49 48 47 46 45 44 43 42 41 40 39 38 37 36 35 34 33 31 30 29 28 27 26 25 25 24 24 24 23 23 23 23 24 24 24 25 26 27
50 50 49 49 49 50 50 48 47 46 45 45 44 43 42 41 40 39 38 38 36 34 33 32 31 30 29 28 27 27 26 26 25 25 25 25 25 26 26 26 27 28 29
50 50 50 50 49 49 50 49 48 47 47 46 46 45 44 43 42 41 40 38 37 36 35 34 33 32 31 30 29 29 28 27 27 26 26 27 27 27 27 28 29 29 30
49 49 50 49 48 47 48 49 49 49 48 47 47 47 47 46 45 43 41 39 38 37 36 35 34 33 32 31 30 30 29 29 28 28 28 28 28 28 29 29 30 31 31
49 48 48 48 47 47 47 48 50 50 49 49 49 49 49 48 46 45 43 42 40 39 38 37 35 34 33 33 32 31 30 30 29 29 29 29 29 29 30 30 31 32 32
48 47 46 46 46 46 47 48 49 50 49 49 50 51 50 49 48 46 45 44 42 41 40 38 37 36 35 34 33 32 31 30 30 30 30 30 31 31 31 32 32 33 33
46 46 46 45 46 46 47 48 49 50 50 50 51 52 51 51 50 47 46 45 44 42 41 39 38 36 35 34 33 33 32 32 31 31 31 31 32 32 32 33 33 34 34
46 45 45 45 45 46 47 48 49 50 50 50 52 53 53 52 51 49 47 46 46 44 42 40 39 37 36 35 34 34 33 33 32 32 32 32 32 32 33 33 34 34 35
45 45 45 44 44 44 45 46 48 49 50 49 50 52 53 53 51 50 48 47 46 45 44 42 40 39 37 35 35 34 34 33 33 32 32 32 33 33 33 34 34 35 36
44 43 43 43 42 43 43 44 45 47 47 47 48 49 51 52 52 51 48 47 47 47 45 44 42 40 38 37 36 35 34 33 33 33 32 33 33 33 34 35 35 36 36
Wind_Direction
291 294 298 301 305 309 313 319 324 327 331 335 336 337 338 338 336 333 332 330 319 303 285 269 258 251 245 242 234 229 227 227 227 229 231 231 231 230 230 231 231 232 234
288 291 294 296 298 301 305 309 315 318 320 325 329 331 331 332 332 331 329 327 323 314 298 282 268 260 254 246 241 238 236 233 233 233 235 236 236 234 233 233 233 234 235
284 286 289 292 293 295 297 300 305 310 313 314 317 321 322 323 325 323 324 321 319 317 308 293 277 270 265 258 253 249 245 241 239 240 240 239 239 238 237 236 237 237 237
282 283 285 287 288 290 292 293 296 300 303 307 309 311 311 310 312 314 316 315 310 309 305 296 284 275 269 264 260 255 252 247 245 245 243 242 242 242 241 241 241 240 240
282 281 282 283 284 286 287 288 289 291 293 295 300 303 302 300 301 303 306 306 303 304 304 299 291 285 276 269 264 262 257 253 250 249 247 246 246 246 247 247 245 244 244
283 281 280 280 281 282 283 284 284 284 286 287 289 293 294 293 293 293 295 297 298 296 296 297 295 292 285 276 271 270 266 261 256 253 251 251 249 248 249 248 247 246 247
282 281 279 279 279 279 279 280 280 280 280 281 282 284 285 285 285 285 287 289 290 289 287 287 289 289 287 280 273 273 271 269 263 259 258 256 253 250 249 248 247 248 248
282 281 279 278 277 276 276 276 277 276 276 276 276 277 278 278 278 279 278 280 281 282 282 281 282 283 281 279 276 274 273 272 269 265 263 259 256 254 253 251 249 250 251
282 280 279 277 276 275 274 273 273 273 273 273 272 272 272 272 273 273 273 274 275 275 276 276 276 278 278 278 277 275 275 272 271 270 267 261 257 257 256 253 252 252 254
281 280 278 277 276 275 273 272 271 271 270 269 269 269 268 268 268 269 269 270 271 271 271 271 272 273 274 274 275 275 275 273 271 270 268 262 260 260 258 257 256 256 256
280 279 278 276 275 274 272 270 268 268 267 267 266 266 266 265 265 265 265 266 266 267 268 268 268 269 271 272 273 273 273 273 271 269 269 268 263 261 260 259 259 260 260
280 278 277 275 274 272 270 268 267 265 264 264 264 264 264 263 263 263 262 262 263 264 265 265 264 266 268 270 271 271 271 272 273 272 271 272 268 263 261 261 261 262 263
280 278 276 274 272 270 268 266 265 263 262 262 262 262 262 261 260 260 260 260 260 261 262 262 262 264 265 267 269 270 269 270 271 271 271 271 269 267 264 263 263 265 266
279 277 275 272 270 269 267 265 263 262 260 260 260 260 260 259 259 258 258 258 258 258 259 260 261 262 263 265 266 268 268 269 270 270 270 271 271 270 269 269 269 270 270
278 276 274 272 269 267 265 263 261 260 259 258 257 257 258 258 258 257 257 257 257 257 258 259 260 261 262 263 264 265 266 268 269 270 271 271 271 271 272 272 273 273 273
277 275 273 270 268 266 263 261 260 259 258 257 255 254 255 256 256 256 256 256 255 256 257 257 258 260 261 261 262 262 264 267 268 270 271 271 273 274 275 275 276 276 277
279 276 273 270 267 265 263 260 258 257 256 255 254 253 253 253 253 254 254 255 255 255 256 257 257 258 259 261 262 263 264 266 268 269 270 271 273 274 276 278 278 278 279
280 277 274 271 268 264 262 259 256 254 253 252 251 250 251 251 251 252 253 254 254 254 255 255 256 257 258 259 261 262 264 266 268 269 270 272 273 275 277 279 280 280 280
279 277 274 271 268 265 260 257 255 253 250 249 248 247 248 249 248 249 251 252 253 253 254 255 256 257 258 259 261 262 264 265 267 269 271 273 274 275 277 279 281 282 282
279 277 274 271 269 265 261 256 254 252 250 247 246 245 246 247 247 248 249 251 252 253 253 254 255 256 257 259 260 262 264 265 267 269 271 273 275 277 278 280 282 283 284
280 277 274 271 268 265 261 256 253 251 249 246 245 243 244 244 245 246 247 248 250 252 253 254 254 255 256 258 260 262 264 265 267 269 271 273 276 279 280 282 284 285 286
280 276 273 270 267 264 261 257 253 250 248 246 244 242 243 242 243 244 245 246 248 249 251 252 253 254 256 258 259 261 264 266 268 270 272 274 277 279 281 283 284 286 287
280 276 273 270 267 263 260 257 253 250 248 246 243 241 242 241 241 242 244 244 246 247 249 251 252 254 256 257 259 261 263 266 268 271 274 275 277 279 281 283 285 287 289
280 276 273 271 267 264 261 258 254 250 248 246 244 241 241 240 240 240 242 242 243 245 247 249 251 253 254 256 259 261 264 267 270 272 274 276 278 279 281 283 285 287 289
282 277 273 271 268 265 262 259 254 250 247 245 243 241 239 238 238 239 240 241 241 243 245 247 250 251 253 256 259 261 264 267 270 272 275 276 278 280 282 284 286 288 290
284 278 274 271 269 266 263 260 255 250 246 244 242 239 238 236 236 237 238 240 241 241 243 245 248 250 252 254 258 260 263 267 270 272 275 277 278 280 282 285 287 289 290
Height
5815 5814 5812 5811 5809 5807 5805 5803 5801 5798 5796 5793 5791 5788 5786 5783 5781 5779 5778 5776 5775 5774 5773 5773 5773 5773 5774 5774 5775 5777 5779 5781 5783 5785 5787 5790 5793 5796 5799 5802 5805 5808 5812
5812 5811 5809 5808 5806 5804 5803 5801 5799 5797 5794 5792 5790 5787 5785 5783 5781 5779 5777 5775 5774 5773 5772 5771 5771 5771 5772 5772 5773 5774 5776 5777 5779 5781 5783 5785 5788 5791 5793 5796 5799 5802 5805
5808 5807 5806 5805 5803 5801 5800 5798 5796 5794 5792 5790 5788 5786 5784 5781 5780 5778 5776 5775 5773 5772 5771 5770 5770 5770 5770 5770 5771 5771 5773 5774 5775 5777 5778 5780 5783 5785 5788 5790 5793 5796 5799
5803 5802 5801 5800 5799 5798 5796 5795 5793 5791 5789 5788 5786 5784 5782 5780 5778 5776 5775 5773 5772 5771 5770 5769 5768 5768 5768 5768 5768 5768 5769 5770 5771 5773 5774 5775 5777 5780 5782 5784 5787 5789 5792
5798 5797 5796 5795 5794 5793 5792 5790 5789 5788 5786 5784 5783 5781 5779 5777 5776 5774 5773 5772 5770 5769 5768 5767 5766 5766 5765 5765 5765 5765 5766 5766 5767 5768 5769 5771 5772 5774 5776 5778 5780 5783 5785
5793 5792 5791 5790 5789 5788 5787 5785 5784 5783 5782 5781 5779 5778 5776 5775 5773 5772 5771 5770 5768 5767 5766 5765 5764 5763 5763 5762 5762 5762 5763 5763 5764 5764 5765 5766 5767 5769 5770 5772 5774 5777 5779
5787 5786 5784 5783 5783 5782 5781 5780 5779 5778 5777 5776 5775 5773 5772 5771 5770 5769 5768 5767 5766 5765 5764 5763 5762 5761 5760 5760 5760 5759 5759 5759 5760 5760 5761 5761 5762 5763 5764 5766 5768 5770 5772
5780 5779 5778 5776 5776 5775 5774 5773 5772 5771 5771 5770 5769 5768 5767 5766 5765 5765 5764 5763 5762 5761 5760 5760 5759 5758 5757 5757 5756 5756 5756 5755 5755 5756 5756 5756 5757 5757 5759 5760 5761 5763 5765
5772 5770 5769 5768 5767 5767 5766 5765 5765 5764 5764 5763 5763 5762 5762 5761 5760 5760 5759 5758 5758 5757 5756 5756 5755 5754 5754 5753 5753 5752 5752 5751 5751 5751 5751 5751 5752 5752 5753 5754 5755 5757 5758
5762 5761 5760 5759 5758 5758 5757 5756 5756 5756 5756 5755 5755 5755 5755 5755 5754 5754 5754 5753 5753 5752 5752 5751 5751 5750 5750 5749 5749 5748 5748 5747 5747 5747 5746 5746 5746 5747 5747 5748 5750 5751 5752
5752 5750 5749 5748 5748 5747 5747 5746 5746 5746 5746 5747 5747 5747 5747 5747 5747 5747 5747 5747 5747 5747 5746 5746 5746 5745 5745 5744 5744 5743 5743 5743 5742 5742 5742 5741 5741 5741 5742 5742 5743 5744 5745
5740 5739 5738 5737 5736 5736 5735 5735 5735 5736 5736 5737 5737 5738 5739 5739 5739 5740 5740 5740 5740 5740 5740 5740 5740 5740 5740 5739 5739 5738 5738 5738 5737 5737 5736 5736 5736 5736 5736 5737 5737 5738 5738
5726 5725 5724 5723 5723 5723 5723 5723 5724 5724 5725 5726 5727 5728 5729 5730 5730 5731 5732 5732 5733 5733 5734 5734 5734 5734 5734 5733 5733 5733 5733 5732 5732 5731 5731 5731 5730 5730 5730 5730 5731 5731 5731
5712 5711 5710 5709 5709 5709 5709 5710 5711 5712 5713 5714 5716 5717 5719 5720 5721 5722 5723 5724 5725 5725 5726 5726 5727 5727 5727 5727 5727 5727 5727 5726 5726 5726 5725 5725 5725 5725 5724 5724 5724 5724 5724
5696 5694 5694 5694 5694 5694 5695 5696 5697 5699 5700 5702 5704 5705 5707 5709 5710 5712 5713 5714 5715 5717 5717 5718 5719 5719 5720 5720 5720 5720 5720 5720 5720 5720 5719 5719 5718 5718 5718 5718 5717 5717 5717
5678 5678 5677 5677 5677 5678 5680 5681 5682 5684 5686 5688 5690 5693 5695 5697 5699 5701 5702 5704 5705 5707 5709 5710 5710 5711 5712 5712 5713 5713 5713 5713 5713 5713 5713 5712 5712 5711 5711 5710 5710 5710 5709
5661 5660 5660 5660 5660 5661 5662 5664 5667 5669 5671 5674 5676 5679 5682 5685 5687 5689 5691 5693 5695 5697 5699 5700 5701 5702 5703 5704 5704 5705 5705 5706 5706 5705 5705 5705 5705 5704 5704 5703 5702 5701 5701
5643 5642 5641 5642 5642 5643 5644 5647 5649 5652 5656 5659 5662 5665 5669 5672 5674 5677 5679 5682 5684 5687 5689 5690 5692 5693 5694 5695 5696 5696 5697 5697 5697 5697 5697 5697 5696 5696 5695 5695 5694 5693 5692
5625 5624 5623 5623 5624 5625 5626 5629 5632 5635 5639 5643 5647 5651 5654 5657 5660 5664 5667 5671 5674 5676 5678 5680 5682 5683 5685 5686 5687 5687 5688 5688 5689 5689 5688 5688 5688 5687 5687 5686 5685 5684 5683
5607 5606 5605 5605 5606 5607 5609 5611 5614 5618 5622 5626 5631 5636 5639 5643 5647 5651 5655 5659 5662 5665 5667 5669 5671 5673 5675 5676 5677 5678 5679 5679 5680 5680 5679 5679 5679 5678 5677 5677 5675 5674 5673
5590 5589 5588 5588 5588 5590 5592 5594 5597 5601 5605 5610 5615 5619 5624 5628 5633 5638 5642 5646 5649 5653 5655 5658 5660 5662 5664 5666 5667 5668 5669 5670 5670 5670 5670 5670 5669 5669 5668 5667 5666 5664 5663
5572 5571 5571 5570 5571 5573 5575 5577 5580 5584 5588 5593 5598 5603 5607 5613 5619 5624 5628 5633 5637 5640 5643 5646 5649 5651 5653 5655 5657 5658 5659 5660 5660 5661 5661 5660 5660 5659 5658 5657 5656 5654 5652
5555 5554 5553 5553 5554 5555 5557 5560 5563 5567 5571 5576 5580 5586 5591 5597 5604 5609 5614 5619 5623 5627 5631 5634 5637 5640 5643 5645 5646 5648 5649 5650 5651 5651 5651 5650 5650 5649 5648 5647 5645 5643 5641
5538 5536 5536 5536 5536 5537 5539 5542 5545 5549 5554 5558 5563 5570 5576 5582 5588 5594 5600 5604 5609 5614 5618 5622 5626 5629 5631 5634 5636 5637 5639 5640 5640 5641 5640 5640 5639 5639 5638 5636 5635 5633 5631
5521 5520 5519 5519 5520 5521 5522 5524 5527 5531 5536 5541 5547 5553 5559 5566 5572 5579 5585 5590 5596 5601 5605 5610 5614 5617 5620 5622 5624 5626 5628 5629 5630 5630 5630 5630 5629 5628 5627 5625 5624 5622 5620
5506 5504 5503 5503 5503 5504 5505 5507 5510 5514 5519 5524 5530 5536 5543 5550 5557 5564 5570 5576 5581 5587 5592 5597 5601 5605 5608 5611 5613 5615 5617 5618 5619 5619 5619 5619 5618 5617 5616 5615 5613 5611 5608